Location: Theydon Bois
(51.6750°N, 0.1050°E)
Time: 21:58:25
(UTC+01:00)

Daily predictions for brighter satellites

Satellite Brightness Start Highest point End
(mag) Time Altitude Azimuth Time Altitude Azimuth Time Altitude Azimuth
Cosmos 2239 Rocket 4.5 18:22:51 10° N 18:29:00 65° ENE 18:35:06 10° SSE
Okean-O 2.6 18:27:20 10° SSE 18:31:46 84° ENE 18:36:14 10° NNW
Unknown 3.8 18:28:01 10° WSW 18:32:08 65° SSE 18:36:15 10° ENE
SMAP 3.5 18:27:33 10° S 18:32:11 69° WSW 18:36:52 10° NNW
Unknown 3.8 18:28:48 10° WSW 18:32:55 66° SSE 18:37:02 10° ENE
Cosmos 1758 3.4 18:30:12 10° SSW 18:34:10 83° W 18:38:10 10° N
CZ-4C R/B 4.1 18:27:26 10° NW 18:34:15 48° WSW 18:41:57 10° SSE
Falcon 9 debris 3.2 18:30:49 10° W 18:34:16 72° N 18:37:43 10° E
FengYun 1-2 T 4.4 18:28:54 10° SE 18:34:22 54° ENE 18:39:49 10° N
Unknown 3.7 18:30:33 10° WSW 18:34:40 68° SSE 18:38:48 10° ENE
BREEZE-M DEB (TANK) 3.5 18:30:43 10° W 18:34:42 77° S 18:43:38 10° ESE
Lacrosse 5 2.1 18:31:15 10° WNW 18:36:16 57° NNE 18:41:15 10° E
Cosmos 1821 Rocket 4.0 18:31:02 10° N 18:37:11 81° E 18:43:20 10° SSE
COSMO-SKYMED 1 3.3 18:33:16 10° NNE 18:37:12 32° E 18:41:07 10° SSE
Cosmos 1605 Rocket 4.4 18:31:36 10° N 18:37:25 39° ENE 18:43:08 10° SE
Cosmos 968 Rocket 4.1 18:32:40 10° NNW 18:37:54 64° WSW 18:43:05 10° S
Unknown 3.7 18:33:51 10° WSW 18:37:58 70° SSE 18:42:07 10° ENE
Unknown 3.7 18:34:10 10° WSW 18:38:17 70° SSE 18:42:25 10° ENE
Unknown 3.7 18:35:25 10° WSW 18:39:33 70° SSE 18:43:41 10° ENE
Cosmos 1908 4.5 18:39:13 10° SE 18:42:13 21° E 18:45:13 10° NE
Unknown 3.7 18:38:35 10° WSW 18:42:42 71° SSE 18:46:51 10° ENE
Cosmos 1825 Rocket 3.9 18:39:30 10° NNW 18:43:52 74° W 18:48:14 10° S
Unknown 3.7 18:42:01 10° WSW 18:46:10 75° SSE 18:50:11 11° ENE
Cosmos 1934 Rocket 4.1 18:40:06 10° N 18:46:25 64° ENE 18:52:44 10° SSE
Cosmos 2278 Rocket 3.3 18:42:22 10° SSE 18:46:41 23° ESE 18:51:00 10° NE
ATLAS 5 CENTAUR R/B 1.7 18:42:22 10° SW 18:46:44 85° NW 18:51:43 10° NE
Cosmos 724 4.5 18:40:45 10° SW 18:46:53 84° NW 18:52:57 10° NE
Cosmos 1953 Rocket 3.5 18:42:41 10° N 18:47:07 85° E 18:51:28 10° S
Unknown 3.2 18:43:52 10° WNW 18:47:22 73° N 18:50:40 12° E
Unknown 3.7 18:43:42 10° WSW 18:47:50 76° SSE 18:51:48 11° ENE
Unknown 3.6 18:45:20 10° WSW 18:49:29 77° SSE 18:53:23 12° ENE
Nadezhda 3 Rocket 4.0 18:44:38 10° S 18:50:56 82° E 18:57:20 10° NNE
Unknown 3.6 18:47:00 10° WSW 18:51:08 78° SSE 18:54:59 12° ENE
Lacrosse 5 rocket 3.5 18:48:15 10° W 18:51:17 23° SW 18:54:24 10° S
Cosmos 1844 3.8 18:45:57 10° SSW 18:51:36 66° ESE 18:57:22 10° NE
NOAA 12 4.3 18:46:54 10° SSE 18:52:12 78° WSW 18:57:33 10° NNW
Cosmos 1535 Rocket 4.4 18:46:58 10° N 18:53:14 71° ENE 18:59:21 10° SSE
Unknown 3.6 18:50:21 10° WSW 18:54:30 80° SSE 18:58:12 13° ENE
Cosmos 1470 3.8 18:51:05 10° SSW 18:54:58 52° WNW 18:58:53 10° N
Ariane Rocket 3.7 18:51:06 10° SE 18:55:37 33° ENE 19:00:10 10° N
Unknown 3.6 18:52:03 10° WSW 18:56:12 81° SSE 18:59:51 13° ENE
Unknown 3.6 18:53:39 10° WSW 18:57:48 82° SSE 19:01:22 14° ENE
Unknown 3.6 18:55:17 10° WSW 18:59:26 82° SSE 19:02:57 14° ENE
Abrixas rocket 4.4 18:58:33 10° SSE 18:59:41 12° SSE 19:00:46 10° SE
Unknown 3.6 18:55:43 10° WSW 18:59:52 83° SSE 19:03:22 14° ENE
Cosmos 1939 Rocket 3.6 18:56:51 10° SE 19:00:25 32° ENE 19:04:03 10° N
Cosmos 1461 3.1 18:56:37 10° NW 19:00:34 50° NE 19:04:27 11° ESE
COBE Rocket 4.0 18:55:43 10° NNE 19:00:55 71° E 19:06:00 10° S
Cosmos 1992 Rocket 4.0 18:56:07 10° SSW 19:01:21 89° WNW 19:06:37 10° NNE
Cosmos 1328 3.7 18:57:28 10° N 19:01:29 69° ENE 19:05:25 10° SSE
Cosmos 1606 Rocket 3.6 18:57:37 10° S 19:02:01 85° W 19:06:24 10° N
Cosmos 1242 Rocket 2.5 18:58:34 10° NNW 19:02:18 86° E 19:05:59 10° SSE
Unknown 3.6 18:58:26 10° WSW 19:02:35 82° SSE 19:05:58 15° ENE
Unknown 3.6 19:01:49 10° WSW 19:05:58 84° SSE 19:09:13 16° ENE
CSL-04 Rocket 3.7 19:02:02 10° SSE 19:07:33 75° ENE 19:13:02 10° NNW
Unknown 3.6 19:03:26 10° WSW 19:07:35 85° SSE 19:10:46 17° ENE
Cosmos 2084 Rocket 4.2 19:03:52 10° NW 19:08:04 39° NNE 19:11:03 17° E
Cosmos 1726 2.1 19:05:53 10° S 19:09:27 56° E 19:13:04 10° NNE
Unknown 3.6 19:05:21 10° WSW 19:09:30 89° SSE 19:12:37 17° ENE
Cosmos 2263 Rocket 4.0 19:04:47 10° W 19:09:37 28° NW 19:14:28 10° NNE
Unknown 3.7 19:06:39 10° WNW 19:09:39 47° SSW 19:12:18 13° SE
Unknown 3.6 19:06:44 10° WSW 19:10:52 87° S 19:13:56 18° ENE
Cosmos 1777 Rocket 3.9 19:07:11 10° NNW 19:12:26 79° ENE 19:17:38 10° SSE
Unknown 3.6 19:08:25 10° WSW 19:12:34 88° SSE 19:15:34 18° ENE
HJ-1C 4.4 19:14:01 18° ESE 19:15:40 27° ENE 19:18:35 10° N
Unknown 3.6 19:11:47 10° WSW 19:15:56 90° WSW 19:18:48 20° ENE
Unknown 3.6 19:13:26 10° WSW 19:17:36 89° NNW 19:20:24 20° ENE
NOAA 11 4.3 19:12:31 10° SE 19:17:50 56° ENE 19:23:09 10° N
ATLAS CENTAUR R/B 3.7 19:15:33 10° NW 19:18:36 17° N 19:21:33 10° NE
Unknown 3.6 19:15:07 10° WSW 19:19:16 88° NNW 19:22:00 21° ENE
Unknown 3.6 19:16:47 10° WSW 19:20:56 87° NNW 19:23:35 22° ENE
Cosmos 1812 Rocket 4.4 19:17:43 10° SSE 19:21:31 29° E 19:25:22 10° NNE
ARGOS 4.4 19:19:44 18° E 19:21:46 22° NE 19:25:53 10° N
Cosmos 1833 Rocket 2.6 19:16:46 10° NNW 19:22:24 72° ENE 19:28:01 10° SE
Unknown 3.4 19:19:57 10° W 19:23:42 71° N 19:25:43 25° E
Cosmos 1076 Rocket 4.1 19:19:46 10° N 19:23:50 36° ENE 19:27:00 15° SE
Unknown 3.6 19:20:05 10° WSW 19:24:15 86° N 19:26:46 23° ENE
CZ-4 R/B 2.0 19:21:10 10° S 19:25:19 64° WSW 19:29:33 10° NNW
SKYMED 2 3.5 19:21:02 10° NNE 19:25:25 90° ESE 19:29:47 10° SSW
Unknown 3.6 19:21:29 10° WSW 19:25:38 84° NNW 19:28:06 24° ENE
BREEZE-M DEB (TANK) 4.1 19:17:03 10° SW 19:25:49 29° SSE 19:27:59 19° ESE
Unknown 3.6 19:22:01 10° W 19:26:10 82° NNW 19:28:37 24° ENE
Unknown 3.6 19:23:39 10° W 19:27:49 82° NNW 19:30:12 25° ENE
CZ-2D R/B 3.2 19:25:48 10° SSE 19:29:37 66° ENE 19:33:29 10° N
Unknown 3.6 19:26:46 10° W 19:30:54 83° NNW 19:33:10 26° ENE
YAOGAN 1 2.8 19:27:02 10° S 19:31:20 72° WSW 19:35:41 10° NNW
Cosmos 489 Rocket 4.4 19:27:15 10° SSW 19:33:25 73° ESE 19:39:37 10° NNE
Cosmos 1153 Rocket 4.4 19:27:24 10° N 19:33:31 63° ENE 19:39:36 10° SSE
Unknown 3.6 19:30:05 10° W 19:34:15 82° N 19:36:21 28° ENE
Unknown 3.6 19:31:05 10° W 19:35:11 79° N 19:37:13 29° ENE
Unknown 3.6 19:31:46 10° W 19:35:56 81° NNW 19:37:59 29° ENE
H-2A R/B 3.0 19:35:44 24° E 19:37:29 29° ENE 19:42:07 10° N
Unknown 3.6 19:33:24 10° W 19:37:34 80° N 19:39:33 30° ENE
Unknown 3.6 19:33:33 10° W 19:37:37 75° N 19:39:29 31° ENE
Unknown 3.6 19:35:05 10° W 19:39:15 80° N 19:41:10 31° ENE
Meteor 2-10 4.0 19:34:44 10° SSW 19:39:49 84° WNW 19:44:53 10° NNE
Unknown 3.4 19:38:00 10° W 19:41:51 71° N 19:43:14 37° ENE
BREEZE-M DEB (TANK) 3.9 19:39:46 10° SSW 19:42:38 20° SSE 19:42:39 20° SSE
Shenzhou-11 Module 4.3 19:42:24 10° SW 19:43:45 13° S 19:44:07 13° S
YAOGAN 6 4.2 19:41:13 10° SSW 19:44:39 38° W 19:48:05 10° NNW
ADEOS Rocket 4.2 19:38:37 10° NNE 19:45:14 30° E 19:51:28 10° SSE
Unknown 3.6 19:41:41 10° W 19:45:50 78° N 19:47:29 35° ENE
Cosmos 1703 4.4 19:42:03 10° NNW 19:45:51 45° W 19:49:36 10° SSW
Cosmos 2082 Rocket 2.1 19:40:58 10° NNW 19:46:44 76° ENE 19:51:05 18° SE
Unknown 3.6 19:43:25 10° W 19:47:34 77° N 19:49:09 37° ENE
Unknown 3.6 19:45:03 10° W 19:49:13 77° N 19:50:43 38° ENE
ASTEX 1 4.3 19:44:57 10° N 19:49:45 52° WNW 19:54:33 10° SSW
Unknown 3.6 19:46:43 10° W 19:50:52 76° N 19:52:18 39° ENE
Unknown 3.5 19:48:18 10° W 19:52:12 71° N 19:53:16 45° ENE
Unknown 3.6 19:48:23 10° W 19:52:32 76° N 19:53:54 41° ENE
FALCON 9 DEB 3.3 19:49:30 10° WNW 19:52:58 68° SSW 19:53:41 50° SE
Unknown 3.4 19:51:03 10° WNW 19:54:26 60° SSW 19:55:05 48° SSE
Cosmos 921 Rocket 4.2 19:50:07 10° SW 19:54:27 45° WNW 19:58:45 10° NNE
Cosmos 2084 4.4 19:50:11 10° WSW 19:54:33 47° NW 19:57:42 17° NE
Cosmos 2151 4.1 19:50:53 10° N 19:53:49 27° NE 19:53:49 27° NE
Cosmos 1898 Rocket 3.9 19:50:07 10° NNW 19:55:10 44° ENE 19:56:42 35° E
Gbstr 26 Del rocket 4.4 19:49:17 10° WNW 19:55:16 62° SSW 19:59:47 24° SE
Unknown 3.6 19:51:44 10° W 19:55:54 75° N 19:57:08 44° ENE
Starlink (trailer) 3.6 19:53:22 10° W 19:57:32 75° N 19:58:42 45° ENE
Cosmos 292 Rocket 4.1 19:54:06 10° SW 19:58:50 67° WNW 20:03:36 10° NNE
Unknown 3.6 19:55:03 10° W 19:59:11 75° N 20:00:17 47° ENE
Cosmos 2058 2.9 19:56:34 10° N 20:00:45 58° ENE 20:01:38 47° ESE
Unknown 3.6 19:56:41 10° W 20:00:51 74° N 20:01:53 49° ENE
Cosmos 2058 Rocket 4.3 19:57:05 10° SW 20:01:14 42° WNW 20:05:24 10° N
Cosmos 2061 Rocket 4.2 19:55:33 10° N 20:01:36 47° ENE 20:04:09 31° SE
Unknown 3.2 19:58:29 10° WNW 20:02:00 68° SSW 20:02:22 61° SSE
SJ-6B 3.5 20:03:36 35° NE 20:03:36 35° NE 20:06:20 10° N
ATLAS 3B R/B 4.4 20:00:23 10° SSE 20:01:17 13° SSE 20:01:17 13° SSE
Cosmos 1844 Rocket 4.1 20:01:13 10° WSW 20:06:27 37° NW 20:11:41 10° NNE
Unknown 3.6 20:03:02 10° W 20:07:11 73° N 20:07:57 56° ENE
Unknown 3.6 20:03:22 10° W 20:07:31 73° N 20:08:16 56° ENE
USA 116 4.4 20:04:39 10° N 20:07:39 43° WNW 20:10:48 10° SW
DMSP B5D1-3 4.5 20:02:36 10° NNE 20:07:45 87° WNW 20:12:54 10° SSW
Unknown 3.6 20:04:00 10° W 20:08:09 73° N 20:08:52 57° ENE
Falcon 9 debris 3.6 20:07:53 10° WNW 20:11:16 51° SSW 20:11:19 51° SSW
Unknown 3.6 20:07:34 10° W 20:11:44 73° N 20:12:18 61° NE
CZ-2C R/B 3.8 20:12:02 37° ENE 20:12:30 38° ENE 20:17:46 10° N
Unknown 3.6 20:08:24 10° W 20:12:33 73° N 20:13:06 62° NE
COSMO-SKYMED 1 4.3 20:09:26 10° N 20:13:23 34° WNW 20:17:17 10° SW
In-Cosmos 22 Rocket 4.0 20:08:07 10° N 20:13:29 68° ENE 20:15:45 35° SSE
Unknown 3.6 20:10:10 10° W 20:14:19 72° N 20:14:48 64° NE
Unknown 3.6 20:13:29 10° W 20:17:38 72° N 20:17:59 67° NE
Unknown 3.6 20:13:47 10° W 20:17:56 72° N 20:18:16 68° NE
SJ 16-02 2.1 20:13:57 10° NNW 20:17:24 38° NNE 20:17:24 38° NNE
Cosmos 1459 Rocket 3.9 20:12:03 10° N 20:18:17 78° E 20:23:02 18° SSE
Unknown 3.6 20:15:03 10° W 20:19:13 72° N 20:19:29 69° NNE
Lacrosse 5 2.2 20:14:22 10° WNW 20:19:20 58° SW 20:20:56 40° SSE
Unknown 3.6 20:18:13 10° W 20:22:22 72° N 20:22:31 71° NNE
Unknown 4.0 20:21:09 10° WNW 20:24:07 45° SW 20:24:07 45° SW
Unknown 3.6 20:21:42 10° W 20:25:50 72° N 20:25:50 72° N
Unknown 3.7 20:23:22 10° W 20:27:27 72° N 20:27:27 72° N
Unknown 3.7 20:25:01 10° W 20:29:01 71° NNW 20:29:01 71° NNW
Cosmos 2278 Rocket 2.3 20:24:31 10° SW 20:30:12 75° WNW 20:35:56 10° NNE
MOS 1 4.4 20:25:42 15° S 20:30:28 72° WSW 20:36:09 10° NNW
Unknown 3.7 20:26:41 10° W 20:30:37 70° NNW 20:30:37 70° NNW
Resurs 01 Rocket 3.1 20:32:44 25° NNE 20:32:44 25° NNE 20:34:57 10° N
USA 238 DEB 3.6 20:24:24 10° SSW 20:31:03 66° SE 20:33:52 37° ENE
USA 238 3.6 20:24:31 10° SSW 20:31:10 65° SE 20:33:55 38° ENE
ATLAS 5 CENTAUR R/B 3.5 20:28:02 10° W 20:32:05 29° NNW 20:34:48 18° NNE
Unknown 3.8 20:30:03 10° W 20:33:51 67° NW 20:33:51 67° NW
Cosmos 1766 Rocket 4.3 20:30:00 10° N 20:32:57 40° NNE 20:32:57 40° NNE
Ariane Rocket 4.1 20:29:37 10° S 20:34:28 44° W 20:39:23 10° NNW
Okean 3 Rocket 3.6 20:29:55 10° N 20:34:09 74° NNE 20:34:09 74° NNE
Cosmos 1727 Rocket 4.3 20:29:39 10° SSW 20:35:48 67° WNW 20:41:58 10° N
Unknown 3.9 20:31:46 10° W 20:35:30 65° NW 20:35:30 65° NW
Unknown 3.9 20:33:21 10° W 20:37:01 63° NW 20:37:01 63° NW
Unknown 4.0 20:35:00 10° W 20:38:36 61° NW 20:38:36 61° NW
Unknown 4.0 20:35:26 10° W 20:39:01 61° NW 20:39:01 61° NW
Unknown 4.1 20:38:09 10° W 20:41:37 58° WNW 20:41:37 58° WNW
Cosmos 1802 Rocket 4.0 20:36:08 10° N 20:42:37 87° W 20:45:54 32° S
Cosmos 2173 Rocket 4.1 20:36:35 10° NNW 20:42:51 74° W 20:47:19 20° S
Unknown 4.3 20:41:32 10° W 20:44:52 54° WNW 20:44:52 54° WNW
Cosmos 1864 Rocket 4.3 20:40:48 10° N 20:46:57 73° ENE 20:47:35 67° ESE
Unknown 4.3 20:43:10 10° W 20:46:25 52° WNW 20:46:25 52° WNW
Cosmos 2084 Rocket 4.2 20:43:25 10° NW 20:47:36 50° WSW 20:47:36 50° WSW
Unknown 4.4 20:45:05 10° W 20:48:16 50° WNW 20:48:16 50° WNW
Unknown 4.5 20:46:27 10° W 20:49:35 49° WNW 20:49:35 49° WNW
Cosmos 858 Rocket 4.4 20:46:00 10° NNW 20:50:57 80° N 20:50:57 80° N
Cosmos 1937 Rocket 3.4 20:46:35 10° NNW 20:51:20 74° N 20:51:20 74° N
Cosmos 2123 Rocket 4.3 20:56:11 52° NE 20:56:11 52° NE 21:01:03 10° NNE
NOSS 3-2 (A) 3.3 20:50:11 10° SW 20:56:02 76° SE 20:56:02 76° SE
Cosmos 990 Rocket 4.0 20:52:00 10° NNW 20:57:12 73° WSW 20:57:16 73° WSW
ATLAS CENTAUR R/B 3.3 20:55:03 10° NNW 20:57:49 24° N 20:57:49 24° N
SPOT 3 Rocket 3.8 20:58:35 57° SW 20:59:19 65° WSW 21:04:32 10° NNW
ARGOS 3.1 21:01:16 76° SW 21:01:29 78° WSW 21:06:58 10° NNW
Cosmos 1725 Rocket 3.9 20:56:07 10° N 21:02:25 89° ENE 21:03:03 74° S
Cosmos 2233 Rocket 4.1 20:58:55 10° N 21:04:19 59° NE 21:04:19 59° NE
H-2A R/B 2.6 21:16:22 55° WSW 21:16:37 56° W 21:21:58 10° NNW
Cosmos 2227 Rocket 4.4 21:25:01 10° N 21:27:46 15° NNE 21:27:46 15° NNE
Cosmos 2082 Rocket 4.3 21:25:56 10° NW 21:30:13 22° W 21:32:59 16° SW
ADEOS Rocket 3.6 21:23:37 10° NNE 21:31:24 76° WNW 21:38:42 10° SSW
Cosmos 2297 Rocket 4.3 21:30:20 10° NNW 21:32:56 15° NNE 21:32:56 15° NNE
CZ-2C R/B 4.3 21:53:07 44° WNW 21:53:07 44° WNW 21:57:51 10° NNW
SJ 16-02 3.9 21:52:51 10° NW 21:54:25 18° WNW 21:54:25 18° WNW
Lacrosse 5 4.5 21:58:45 10° W 22:00:08 13° WSW 22:00:08 13° WSW
Resurs 01 Rocket 4.4 22:10:18 16° NW 22:10:18 16° NW 22:11:24 10° NNW
Cosmos 2278 Rocket 4.4 22:10:59 10° W 22:15:18 22° NW 22:19:02 12° N
ATLAS 5 CENTAUR R/B 4.3 22:14:14 10° NW 22:16:20 19° NNW 22:16:20 19° NNW
